LVMEP SCFA-SCSE

Flight info

Callsign LVMEP
Flight time N/A
Altitude 19000
Route SACON4 SACON L300 SEBTO DCT TIMDA TIMDA5
Aircraft BE60/L-SDFGRY/C

Departure

Time 2026-04-22 17:41
Airport Andrés Sabella Gálvez International Airport (SCFA)

Arrival

Time N/A
Airport La Florida Airport (SCSE)
Time Latitude Longitude Altitude Speed Heading
2026-04-22 17:24 -23.44707 -70.44242 456 ft 0 kts
2026-04-22 17:34 -23.44702 -70.44239 456 ft 3 kts 43°
2026-04-22 17:35 -23.44727 -70.44234 456 ft 9 kts 211°
2026-04-22 17:35 -23.44772 -70.44278 456 ft 12 kts 316°
2026-04-22 17:35 -23.44670 -70.44313 456 ft 19 kts 344°
2026-04-22 17:35 -23.44519 -70.44330 456 ft 26 kts
2026-04-22 17:36 -23.44328 -70.44306 456 ft 29 kts
2026-04-22 17:36 -23.44115 -70.44280 456 ft 32 kts
2026-04-22 17:36 -23.43884 -70.44252 456 ft 35 kts
2026-04-22 17:36 -23.43641 -70.44222 456 ft 28 kts
2026-04-22 17:37 -23.43481 -70.44202 456 ft 25 kts
2026-04-22 17:37 -23.43319 -70.44240 456 ft 16 kts 321°
2026-04-22 17:37 -23.43312 -70.44246 456 ft 0 kts 320°
2026-04-22 17:40 -23.43307 -70.44251 456 ft 3 kts 320°
2026-04-22 17:40 -23.43275 -70.44283 456 ft 10 kts 298°
2026-04-22 17:40 -23.43302 -70.44366 456 ft 17 kts 212°
2026-04-22 17:40 -23.43553 -70.44405 457 ft 65 kts 186°
2026-04-22 17:41 -23.44175 -70.44481 482 ft 107 kts 186°
2026-04-22 17:41 -23.44993 -70.44585 704 ft 127 kts 187°
2026-04-22 17:41 -23.45893 -70.44689 1103 ft 132 kts 192°
2026-04-22 17:41 -23.46753 -70.45063 1542 ft 134 kts 205°
2026-04-22 17:42 -23.47607 -70.45473 1970 ft 134 kts 204°
2026-04-22 17:42 -23.48469 -70.45880 2346 ft 136 kts 204°
2026-04-22 17:42 -23.49361 -70.46306 2650 ft 143 kts 204°
2026-04-22 17:42 -23.50285 -70.46746 2969 ft 147 kts 204°
2026-04-22 17:43 -23.51230 -70.47195 3297 ft 149 kts 204°
2026-04-22 17:43 -23.52190 -70.47650 3623 ft 151 kts 205°
2026-04-22 17:43 -23.53157 -70.48110 3961 ft 152 kts 204°
2026-04-22 17:43 -23.54126 -70.48570 4301 ft 152 kts 204°
2026-04-22 17:44 -23.55094 -70.49030 4647 ft 152 kts 204°
2026-04-22 17:44 -23.56067 -70.49493 4982 ft 152 kts 204°
2026-04-22 17:44 -23.57038 -70.49954 5312 ft 152 kts 204°
2026-04-22 17:44 -23.58011 -70.50417 5639 ft 153 kts 204°
2026-04-22 17:45 -23.58986 -70.50881 5968 ft 153 kts 204°
2026-04-22 17:45 -23.59950 -70.51339 6293 ft 153 kts 204°
2026-04-22 17:45 -23.60931 -70.51806 6614 ft 154 kts 203°
2026-04-22 17:45 -23.61914 -70.52273 6922 ft 154 kts 203°
2026-04-22 17:46 -23.62898 -70.52742 7234 ft 155 kts 203°
2026-04-22 17:46 -23.63889 -70.53214 7547 ft 156 kts 203°
2026-04-22 17:46 -23.64884 -70.53688 7868 ft 156 kts 202°
2026-04-22 17:46 -23.65883 -70.54164 8182 ft 157 kts 202°
2026-04-22 17:47 -23.66887 -70.54641 8504 ft 158 kts 202°
2026-04-22 17:47 -23.67896 -70.55122 8830 ft 158 kts 202°
2026-04-22 17:47 -23.68907 -70.55603 9157 ft 159 kts 202°
2026-04-22 17:47 -23.69923 -70.56088 9488 ft 160 kts 202°
2026-04-22 17:48 -23.70600 -70.56410 9705 ft 160 kts 202°
2026-04-22 17:48 -23.71971 -70.57065 10138 ft 161 kts 202°
2026-04-22 17:48 -23.73006 -70.57558 10424 ft 163 kts 202°
2026-04-22 17:48 -23.74054 -70.58058 10709 ft 165 kts 203°
2026-04-22 17:49 -23.75113 -70.58562 11013 ft 166 kts 204°
2026-04-22 17:49 -23.76160 -70.59062 11315 ft 167 kts 204°
2026-04-22 17:49 -23.77227 -70.59571 11624 ft 168 kts 204°
2026-04-22 17:49 -23.78326 -70.60007 11937 ft 169 kts 197°
2026-04-22 17:50 -23.79461 -70.60350 12252 ft 169 kts 198°
2026-04-22 17:50 -23.80589 -70.60719 12569 ft 170 kts 199°
2026-04-22 17:50 -23.81714 -70.61099 12889 ft 171 kts 199°
2026-04-22 17:50 -23.82855 -70.61484 13223 ft 171 kts 200°
2026-04-22 17:51 -23.83994 -70.61869 13549 ft 172 kts 200°
2026-04-22 17:51 -23.85142 -70.62256 13879 ft 173 kts 200°
2026-04-22 17:51 -23.86294 -70.62645 14178 ft 173 kts 200°
2026-04-22 17:51 -23.87447 -70.63036 14471 ft 174 kts 200°
2026-04-22 17:52 -23.88612 -70.63429 14768 ft 175 kts 200°
2026-04-22 17:52 -23.89776 -70.63822 15068 ft 176 kts 201°
2026-04-22 17:52 -23.90950 -70.64219 15370 ft 176 kts 201°
2026-04-22 17:52 -23.92109 -70.64610 15661 ft 177 kts 201°
2026-04-22 17:53 -23.93302 -70.65013 15966 ft 178 kts 201°
2026-04-22 17:53 -23.94487 -70.65414 16268 ft 179 kts 202°
2026-04-22 17:53 -23.95677 -70.65817 16576 ft 179 kts 202°
2026-04-22 17:53 -23.96869 -70.66220 16885 ft 180 kts 202°
2026-04-22 17:54 -23.98053 -70.66621 17187 ft 181 kts 202°
2026-04-22 17:54 -23.99271 -70.67033 17502 ft 181 kts 203°
2026-04-22 17:54 -24.00481 -70.67442 17818 ft 182 kts 203°
2026-04-22 17:54 -24.01678 -70.67848 18128 ft 183 kts 203°
2026-04-22 17:55 -24.02503 -70.68127 18337 ft 183 kts 204°
2026-04-22 17:55 -24.04120 -70.68675 18697 ft 184 kts 204°
2026-04-22 17:55 -24.05346 -70.69090 18976 ft 185 kts 205°
2026-04-22 17:55 -24.06608 -70.69521 19065 ft 198 kts 204°
2026-04-22 17:56 -24.07980 -70.69990 19076 ft 214 kts 204°
2026-04-22 17:56 -24.09446 -70.70486 19075 ft 227 kts 203°
2026-04-22 17:56 -24.10990 -70.71007 19077 ft 236 kts 203°
2026-04-22 17:56 -24.12580 -70.71543 19077 ft 240 kts 203°
2026-04-22 17:57 -24.14188 -70.72088 19083 ft 243 kts 203°
2026-04-22 17:57 -24.15808 -70.72637 19076 ft 245 kts 202°
2026-04-22 17:57 -24.17442 -70.73192 19077 ft 246 kts 203°
2026-04-22 17:57 -24.19085 -70.73749 19080 ft 248 kts 202°
2026-04-22 17:58 -24.20733 -70.74309 19075 ft 249 kts 202°
2026-04-22 17:58 -24.22392 -70.74873 19080 ft 250 kts 202°
2026-04-22 17:58 -24.24066 -70.75441 19078 ft 253 kts 202°
2026-04-22 17:58 -24.25726 -70.76005 19080 ft 254 kts 202°
2026-04-22 17:59 -24.27419 -70.76581 19080 ft 254 kts 202°
2026-04-22 17:59 -24.29108 -70.77155 19076 ft 255 kts 202°
2026-04-22 17:59 -24.30800 -70.77731 19083 ft 256 kts 202°
2026-04-22 17:59 -24.32512 -70.78313 19076 ft 257 kts 202°
2026-04-22 18:00 -24.33646 -70.78699 19080 ft 258 kts 202°
2026-04-22 18:00 -24.35944 -70.79481 19084 ft 258 kts 202°
2026-04-22 18:00 -24.37664 -70.80067 19086 ft 259 kts 202°
2026-04-22 18:00 -24.39383 -70.80652 19081 ft 259 kts 202°
2026-04-22 18:01 -24.41104 -70.81239 19085 ft 260 kts 202°
2026-04-22 18:01 -24.42832 -70.81827 19085 ft 260 kts 202°
2026-04-22 18:01 -24.44557 -70.82415 19089 ft 260 kts 202°
2026-04-22 18:01 -24.46290 -70.83006 19080 ft 260 kts 202°
2026-04-22 18:02 -24.47999 -70.83589 19082 ft 261 kts 202°
2026-04-22 18:02 -24.49732 -70.84180 19084 ft 261 kts 202°
2026-04-22 18:02 -24.51465 -70.84772 19084 ft 261 kts 202°
2026-04-22 18:02 -24.53198 -70.85364 19093 ft 261 kts 202°
2026-04-22 18:03 -24.54937 -70.85958 19081 ft 261 kts 202°
2026-04-22 18:03 -24.56665 -70.86547 19090 ft 260 kts 202°
2026-04-22 18:03 -24.57811 -70.86939 19090 ft 260 kts 202°
2026-04-22 18:03 -24.59540 -70.87530 19087 ft 260 kts 202°
2026-04-22 18:04 -24.61267 -70.88121 19088 ft 260 kts 202°
2026-04-22 18:04 -24.62952 -70.88697 19091 ft 259 kts 202°
2026-04-22 18:04 -24.65260 -70.89486 19094 ft 260 kts 202°
2026-04-22 18:04 -24.66434 -70.89888 19097 ft 260 kts 202°
2026-04-22 18:05 -24.68160 -70.90479 19088 ft 260 kts 202°
2026-04-22 18:05 -24.69863 -70.91062 19093 ft 260 kts 202°
2026-04-22 18:05 -24.71582 -70.91650 19093 ft 259 kts 202°
2026-04-22 18:05 -24.73319 -70.92206 19091 ft 262 kts 196°
2026-04-22 18:06 -24.75143 -70.92399 19092 ft 264 kts 189°
2026-04-22 18:06 -24.76972 -70.92562 19098 ft 264 kts 190°
2026-04-22 18:06 -24.78808 -70.92747 19099 ft 264 kts 190°
2026-04-22 18:06 -24.80638 -70.92923 19097 ft 265 kts 189°
2026-04-22 18:07 -24.82475 -70.93094 19095 ft 265 kts 189°
2026-04-22 18:07 -24.84313 -70.93267 19097 ft 265 kts 189°
2026-04-22 18:07 -24.86151 -70.93441 19093 ft 265 kts 189°
2026-04-22 18:07 -24.87988 -70.93615 19098 ft 265 kts 189°
2026-04-22 18:08 -24.89825 -70.93789 19097 ft 265 kts 189°
2026-04-22 18:08 -24.91662 -70.93963 19099 ft 265 kts 189°
2026-04-22 18:08 -24.93476 -70.94135 19094 ft 265 kts 189°
2026-04-22 18:08 -24.95319 -70.94309 19096 ft 265 kts 189°
2026-04-22 18:09 -24.97150 -70.94482 19100 ft 265 kts 189°
2026-04-22 18:09 -24.98985 -70.94656 19099 ft 264 kts 189°
2026-04-22 18:09 -25.00820 -70.94830 19100 ft 264 kts 189°
2026-04-22 18:09 -25.02653 -70.95004 19097 ft 264 kts 189°
2026-04-22 18:10 -25.04482 -70.95177 19095 ft 264 kts 189°
2026-04-22 18:10 -25.06318 -70.95352 19096 ft 265 kts 189°
2026-04-22 18:10 -25.08153 -70.95526 19096 ft 264 kts 189°
2026-04-22 18:10 -25.09987 -70.95700 19099 ft 264 kts 189°
2026-04-22 18:11 -25.11822 -70.95874 19098 ft 265 kts 189°
2026-04-22 18:11 -25.13659 -70.96049 19099 ft 265 kts 190°
2026-04-22 18:11 -25.15497 -70.96223 19102 ft 265 kts 189°
2026-04-22 18:11 -25.17331 -70.96398 19102 ft 265 kts 189°
2026-04-22 18:12 -25.19145 -70.96570 19101 ft 265 kts 190°
2026-04-22 18:12 -25.20988 -70.96745 19100 ft 265 kts 190°
2026-04-22 18:12 -25.22825 -70.96920 19102 ft 265 kts 189°
2026-04-22 18:12 -25.24666 -70.97095 19098 ft 265 kts 189°
2026-04-22 18:13 -25.26503 -70.97270 19104 ft 265 kts 190°
2026-04-22 18:13 -25.28342 -70.97445 19101 ft 265 kts 189°
2026-04-22 18:13 -25.30178 -70.97620 19100 ft 265 kts 189°
2026-04-22 18:13 -25.32021 -70.97796 19103 ft 266 kts 190°
2026-04-22 18:14 -25.33864 -70.97971 19101 ft 266 kts 189°
2026-04-22 18:14 -25.35707 -70.98147 19100 ft 266 kts 189°
2026-04-22 18:14 -25.37551 -70.98323 19100 ft 266 kts 189°
2026-04-22 18:14 -25.39389 -70.98498 19100 ft 266 kts 190°
2026-04-22 18:15 -25.41243 -70.98675 19101 ft 266 kts 189°
2026-04-22 18:15 -25.43083 -70.98851 19095 ft 266 kts 189°
2026-04-22 18:15 -25.44903 -70.99025 19100 ft 266 kts 189°
2026-04-22 18:15 -25.46748 -70.99200 19102 ft 266 kts 190°
2026-04-22 18:16 -25.48586 -70.99376 19099 ft 265 kts 190°
2026-04-22 18:16 -25.50427 -70.99552 19103 ft 265 kts 190°
2026-04-22 18:16 -25.52269 -70.99728 19101 ft 266 kts 190°
2026-04-22 18:16 -25.54108 -70.99904 19104 ft 266 kts 190°
2026-04-22 18:17 -25.55950 -71.00081 19104 ft 265 kts 189°
2026-04-22 18:17 -25.57791 -71.00256 19105 ft 265 kts 190°
2026-04-22 18:17 -25.59632 -71.00433 19105 ft 266 kts 190°
2026-04-22 18:17 -25.61480 -71.00610 19105 ft 266 kts 190°
2026-04-22 18:18 -25.63317 -71.00786 19105 ft 266 kts 190°
2026-04-22 18:18 -25.65160 -71.00962 19105 ft 266 kts 190°
2026-04-22 18:18 -25.67008 -71.01139 19105 ft 266 kts 190°
2026-04-22 18:18 -25.68850 -71.01316 19107 ft 266 kts 190°
2026-04-22 18:19 -25.70688 -71.01492 19106 ft 266 kts 190°
2026-04-22 18:19 -25.72512 -71.01667 19103 ft 266 kts 190°
2026-04-22 18:19 -25.74356 -71.01844 19106 ft 266 kts 190°
2026-04-22 18:19 -25.76200 -71.02021 19105 ft 266 kts 190°
2026-04-22 18:20 -25.78041 -71.02198 19105 ft 266 kts 190°
2026-04-22 18:20 -25.79890 -71.02375 19104 ft 266 kts 190°
2026-04-22 18:20 -25.81729 -71.02552 19104 ft 266 kts 190°
2026-04-22 18:20 -25.83572 -71.02729 19106 ft 265 kts 190°
2026-04-22 18:21 -25.85412 -71.02906 19106 ft 265 kts 190°
2026-04-22 18:21 -25.87246 -71.03082 19107 ft 265 kts 190°
2026-04-22 18:21 -25.89085 -71.03259 19107 ft 265 kts 190°
2026-04-22 18:21 -25.90925 -71.03436 19104 ft 265 kts 190°
2026-04-22 18:22 -25.92765 -71.03614 19102 ft 265 kts 190°
2026-04-22 18:22 -25.94600 -71.03790 19107 ft 265 kts 190°
2026-04-22 18:22 -25.96439 -71.03967 19105 ft 265 kts 190°
2026-04-22 18:22 -25.98279 -71.04145 19108 ft 265 kts 190°
2026-04-22 18:23 -26.00118 -71.04322 19107 ft 265 kts 190°
2026-04-22 18:23 -26.01933 -71.04497 19108 ft 265 kts 190°
2026-04-22 18:23 -26.03772 -71.04674 19108 ft 265 kts 190°
2026-04-22 18:24 -26.07452 -71.05029 19104 ft 265 kts 190°
2026-04-22 18:24 -26.09290 -71.05206 19104 ft 265 kts 190°
2026-04-22 18:24 -26.12966 -71.05562 19101 ft 265 kts 190°
2026-04-22 18:25 -26.14784 -71.05737 19101 ft 265 kts 190°
2026-04-22 18:25 -26.16613 -71.05914 19100 ft 264 kts 190°
2026-04-22 18:25 -26.18448 -71.06091 19104 ft 264 kts 190°
2026-04-22 18:26 -26.22119 -71.06446 19101 ft 265 kts 190°
2026-04-22 18:26 -26.23956 -71.06624 19105 ft 265 kts 189°
2026-04-22 18:26 -26.25788 -71.06802 19107 ft 265 kts 190°
2026-04-22 18:26 -26.27629 -71.06980 19104 ft 265 kts 190°
2026-04-22 18:27 -26.29466 -71.07158 19101 ft 265 kts 190°
2026-04-22 18:27 -26.31278 -71.07333 19105 ft 265 kts 190°
2026-04-22 18:27 -26.33115 -71.07511 19105 ft 265 kts 190°
2026-04-22 18:27 -26.34951 -71.07689 19103 ft 264 kts 190°
2026-04-22 18:28 -26.36785 -71.07867 19106 ft 264 kts 190°
2026-04-22 18:28 -26.38622 -71.08046 19104 ft 264 kts 190°
2026-04-22 18:28 -26.40453 -71.08225 19104 ft 264 kts 190°
2026-04-22 18:28 -26.42282 -71.08403 19110 ft 264 kts 190°
2026-04-22 18:29 -26.44116 -71.08583 19107 ft 264 kts 190°
2026-04-22 18:29 -26.45954 -71.08762 19108 ft 264 kts 190°
2026-04-22 18:29 -26.47781 -71.08940 19108 ft 264 kts 190°
2026-04-22 18:29 -26.49612 -71.09119 19105 ft 264 kts 190°
2026-04-22 18:30 -26.51444 -71.09298 19105 ft 264 kts 190°
2026-04-22 18:30 -26.55084 -71.09654 19105 ft 264 kts 190°
2026-04-22 18:30 -26.56917 -71.09833 19105 ft 264 kts 190°
2026-04-22 18:31 -26.58746 -71.10012 19106 ft 264 kts 190°
2026-04-22 18:31 -26.60578 -71.10191 19107 ft 264 kts 190°
2026-04-22 18:31 -26.62413 -71.10371 19104 ft 264 kts 190°
2026-04-22 18:31 -26.64239 -71.10550 19105 ft 264 kts 190°
2026-04-22 18:32 -26.66067 -71.10729 19105 ft 263 kts 190°
2026-04-22 18:32 -26.67889 -71.10908 19104 ft 263 kts 189°
2026-04-22 18:32 -26.69714 -71.11087 19105 ft 263 kts 190°
2026-04-22 18:32 -26.71533 -71.11265 19107 ft 263 kts 190°
2026-04-22 18:33 -26.73361 -71.11444 19106 ft 263 kts 190°
2026-04-22 18:33 -26.75184 -71.11623 19106 ft 263 kts 189°
2026-04-22 18:33 -26.77010 -71.11803 19104 ft 263 kts 189°
2026-04-22 18:33 -26.78814 -71.11980 19104 ft 263 kts 190°
2026-04-22 18:34 -26.80635 -71.12158 19103 ft 263 kts 189°
2026-04-22 18:34 -26.82463 -71.12338 19109 ft 263 kts 190°
2026-04-22 18:34 -26.84287 -71.12517 19104 ft 263 kts 189°
2026-04-22 18:34 -26.86108 -71.12697 19105 ft 263 kts 189°
2026-04-22 18:35 -26.87930 -71.12876 19105 ft 263 kts 189°
2026-04-22 18:35 -26.89759 -71.13056 19108 ft 263 kts 189°
2026-04-22 18:35 -26.91582 -71.13235 19109 ft 263 kts 189°
2026-04-22 18:35 -26.93403 -71.13414 19110 ft 263 kts 189°
2026-04-22 18:36 -26.95224 -71.13594 19108 ft 263 kts 189°
2026-04-22 18:36 -26.97048 -71.13773 19110 ft 263 kts 189°
2026-04-22 18:36 -26.98847 -71.13951 19110 ft 263 kts 189°
2026-04-22 18:36 -27.00668 -71.14130 19105 ft 263 kts 189°
2026-04-22 18:37 -27.02491 -71.14310 19102 ft 263 kts 189°
2026-04-22 18:37 -27.04311 -71.14489 19102 ft 262 kts 189°
2026-04-22 18:37 -27.05519 -71.14609 19106 ft 263 kts 189°
2026-04-22 18:37 -27.07954 -71.14849 19106 ft 262 kts 189°
2026-04-22 18:38 -27.09773 -71.15028 19116 ft 262 kts 189°
2026-04-22 18:38 -27.11596 -71.15209 19105 ft 263 kts 189°
2026-04-22 18:38 -27.13416 -71.15389 19110 ft 263 kts 189°
2026-04-22 18:39 -27.17055 -71.15748 19103 ft 262 kts 189°
2026-04-22 18:39 -27.18879 -71.15928 19105 ft 262 kts 189°
2026-04-22 18:39 -27.20671 -71.16106 19108 ft 262 kts 189°
2026-04-22 18:39 -27.22489 -71.16286 19109 ft 262 kts 189°
2026-04-22 18:40 -27.24306 -71.16465 19105 ft 262 kts 189°
2026-04-22 18:40 -27.26128 -71.16646 19105 ft 262 kts 189°
2026-04-22 18:40 -27.27943 -71.16826 19106 ft 262 kts 189°
2026-04-22 18:40 -27.29758 -71.17006 19110 ft 262 kts 189°
2026-04-22 18:41 -27.31570 -71.17185 19110 ft 261 kts 189°
2026-04-22 18:41 -27.33385 -71.17365 19105 ft 261 kts 189°
2026-04-22 18:41 -27.35195 -71.17545 19105 ft 261 kts 189°
2026-04-22 18:41 -27.37009 -71.17725 19105 ft 261 kts 189°
2026-04-22 18:42 -27.38821 -71.17904 19105 ft 261 kts 189°
2026-04-22 18:42 -27.40632 -71.18084 19105 ft 261 kts 189°
2026-04-22 18:42 -27.42446 -71.18265 19104 ft 261 kts 189°
2026-04-22 18:42 -27.44259 -71.18445 19107 ft 261 kts 189°
2026-04-22 18:43 -27.46073 -71.18625 19105 ft 262 kts 189°
2026-04-22 18:43 -27.47886 -71.18805 19102 ft 262 kts 189°
2026-04-22 18:43 -27.49677 -71.18983 19105 ft 261 kts 189°
2026-04-22 18:43 -27.51492 -71.19164 19102 ft 261 kts 189°
2026-04-22 18:44 -27.53305 -71.19344 19099 ft 261 kts 189°
2026-04-22 18:44 -27.55116 -71.19524 19106 ft 261 kts 189°
2026-04-22 18:44 -27.56929 -71.19705 19106 ft 261 kts 189°
2026-04-22 18:44 -27.58738 -71.19885 19111 ft 261 kts 189°
2026-04-22 18:45 -27.60553 -71.20066 19117 ft 261 kts 189°
2026-04-22 18:45 -27.62365 -71.20247 19104 ft 261 kts 189°
2026-04-22 18:45 -27.64178 -71.20428 19106 ft 261 kts 189°
2026-04-22 18:45 -27.65989 -71.20608 19107 ft 261 kts 189°
2026-04-22 18:46 -27.67800 -71.20789 19104 ft 261 kts 189°
2026-04-22 18:46 -27.69610 -71.20970 19106 ft 261 kts 189°
2026-04-22 18:46 -27.71417 -71.21150 19103 ft 261 kts 189°
2026-04-22 18:46 -27.73225 -71.21331 19109 ft 261 kts 189°
2026-04-22 18:47 -27.75036 -71.21512 19111 ft 261 kts 189°
2026-04-22 18:47 -27.76844 -71.21693 19105 ft 261 kts 189°
2026-04-22 18:47 -27.78650 -71.21873 19109 ft 261 kts 189°
2026-04-22 18:47 -27.80456 -71.22053 19105 ft 260 kts 189°
2026-04-22 18:48 -27.82237 -71.22232 19105 ft 260 kts 189°
2026-04-22 18:48 -27.84044 -71.22413 19099 ft 261 kts 189°
2026-04-22 18:48 -27.85852 -71.22594 19101 ft 261 kts 189°
2026-04-22 18:48 -27.87661 -71.22775 19106 ft 261 kts 189°
2026-04-22 18:49 -27.89473 -71.22956 19103 ft 261 kts 189°
2026-04-22 18:49 -27.91280 -71.23138 19103 ft 261 kts 189°
2026-04-22 18:49 -27.92479 -71.23258 19103 ft 261 kts 189°
2026-04-22 18:49 -27.94894 -71.23500 19109 ft 261 kts 189°
2026-04-22 18:50 -27.96095 -71.23620 19105 ft 261 kts 189°
2026-04-22 18:50 -27.98496 -71.23861 19102 ft 261 kts 189°
2026-04-22 18:50 -27.99717 -71.23984 19110 ft 261 kts 189°
2026-04-22 18:50 -28.02113 -71.24224 19100 ft 261 kts 189°
2026-04-22 18:51 -28.03311 -71.24345 19111 ft 261 kts 189°
2026-04-22 18:51 -28.05118 -71.24526 19107 ft 261 kts 189°
2026-04-22 18:51 -28.06927 -71.24708 19103 ft 261 kts 189°
2026-04-22 18:51 -28.08737 -71.24890 19107 ft 261 kts 189°
2026-04-22 18:52 -28.10545 -71.25072 19105 ft 261 kts 189°
2026-04-22 18:52 -28.12353 -71.25254 19104 ft 261 kts 189°
2026-04-22 18:52 -28.14166 -71.25436 19106 ft 261 kts 189°
2026-04-22 18:52 -28.15974 -71.25618 19105 ft 261 kts 189°
2026-04-22 18:53 -28.17780 -71.25800 19107 ft 261 kts 189°
2026-04-22 18:53 -28.19589 -71.25982 19107 ft 261 kts 189°
2026-04-22 18:53 -28.21397 -71.26165 19105 ft 261 kts 189°
2026-04-22 18:53 -28.23209 -71.26347 19107 ft 261 kts 189°
2026-04-22 18:54 -28.25018 -71.26530 19106 ft 261 kts 189°
2026-04-22 18:54 -28.26824 -71.26712 19106 ft 261 kts 189°
2026-04-22 18:54 -28.28611 -71.26892 19107 ft 261 kts 189°
2026-04-22 18:54 -28.30418 -71.27074 19110 ft 261 kts 189°
2026-04-22 18:55 -28.32226 -71.27257 19107 ft 261 kts 189°
2026-04-22 18:55 -28.34031 -71.27440 19108 ft 260 kts 189°
2026-04-22 18:55 -28.35841 -71.27623 19108 ft 261 kts 189°
2026-04-22 18:55 -28.37647 -71.27805 19108 ft 261 kts 189°
2026-04-22 18:56 -28.39453 -71.27988 19106 ft 261 kts 189°
2026-04-22 18:56 -28.41263 -71.28171 19104 ft 261 kts 189°
2026-04-22 18:56 -28.43070 -71.28354 19104 ft 261 kts 189°
2026-04-22 18:56 -28.44876 -71.28536 19104 ft 261 kts 189°
2026-04-22 18:57 -28.46683 -71.28719 19105 ft 261 kts 189°
2026-04-22 18:57 -28.48490 -71.28903 19106 ft 261 kts 189°
2026-04-22 18:57 -28.50299 -71.29086 19105 ft 261 kts 189°
2026-04-22 18:57 -28.52105 -71.29269 19107 ft 261 kts 189°
2026-04-22 18:58 -28.53916 -71.29453 19103 ft 261 kts 189°
2026-04-22 18:58 -28.55724 -71.29636 19101 ft 261 kts 189°
2026-04-22 18:58 -28.57532 -71.29820 19098 ft 261 kts 189°
2026-04-22 18:58 -28.59346 -71.30005 19099 ft 262 kts 189°
2026-04-22 18:59 -28.61163 -71.30189 19096 ft 262 kts 189°
2026-04-22 18:59 -28.62977 -71.30372 19097 ft 262 kts 189°
2026-04-22 18:59 -28.64790 -71.30557 19102 ft 262 kts 189°
2026-04-22 18:59 -28.66607 -71.30742 19100 ft 262 kts 189°
2026-04-22 19:00 -28.68419 -71.30926 19100 ft 262 kts 189°
2026-04-22 19:00 -28.70208 -71.31109 19100 ft 262 kts 189°
2026-04-22 19:00 -28.72030 -71.31294 19100 ft 263 kts 189°
2026-04-22 19:00 -28.73853 -71.31479 19103 ft 263 kts 189°
2026-04-22 19:01 -28.75680 -71.31666 19096 ft 263 kts 189°
2026-04-22 19:01 -28.77505 -71.31852 19098 ft 263 kts 189°
2026-04-22 19:01 -28.79327 -71.32037 19098 ft 263 kts 189°
2026-04-22 19:01 -28.81153 -71.32224 19097 ft 264 kts 189°
2026-04-22 19:02 -28.82980 -71.32410 19092 ft 263 kts 189°
2026-04-22 19:02 -28.84805 -71.32596 19094 ft 263 kts 189°
2026-04-22 19:02 -28.86633 -71.32783 19091 ft 264 kts 189°
2026-04-22 19:02 -28.88464 -71.32971 19095 ft 264 kts 189°
2026-04-22 19:03 -28.90295 -71.33157 19095 ft 264 kts 189°
2026-04-22 19:03 -28.92127 -71.33344 19097 ft 264 kts 189°
2026-04-22 19:03 -28.93958 -71.33532 19100 ft 264 kts 189°
2026-04-22 19:03 -28.95787 -71.33718 19100 ft 264 kts 189°
2026-04-22 19:04 -28.97614 -71.33905 19099 ft 264 kts 189°
2026-04-22 19:04 -28.99446 -71.34093 19105 ft 264 kts 189°
2026-04-22 19:04 -29.01273 -71.34280 19103 ft 264 kts 189°
2026-04-22 19:04 -29.03103 -71.34468 19104 ft 264 kts 189°
2026-04-22 19:05 -29.04929 -71.34655 19101 ft 263 kts 189°
2026-04-22 19:05 -29.06755 -71.34841 19104 ft 263 kts 189°
2026-04-22 19:05 -29.08579 -71.35029 19105 ft 263 kts 189°
2026-04-22 19:05 -29.10377 -71.35213 19102 ft 263 kts 189°
2026-04-22 19:06 -29.12200 -71.35400 19105 ft 263 kts 189°
2026-04-22 19:06 -29.14025 -71.35588 19101 ft 263 kts 189°
2026-04-22 19:06 -29.15850 -71.35775 19107 ft 263 kts 189°
2026-04-22 19:07 -29.19494 -71.36149 19107 ft 263 kts 189°
2026-04-22 19:07 -29.21313 -71.36337 19107 ft 263 kts 189°
2026-04-22 19:07 -29.23137 -71.36524 19107 ft 263 kts 189°
2026-04-22 19:07 -29.24956 -71.36710 19109 ft 261 kts 189°
2026-04-22 19:08 -29.26740 -71.36893 19067 ft 256 kts 189°
2026-04-22 19:08 -29.28521 -71.37078 18865 ft 259 kts 189°
2026-04-22 19:08 -29.30332 -71.37266 18626 ft 263 kts 189°
2026-04-22 19:08 -29.32160 -71.37453 18382 ft 265 kts 189°
2026-04-22 19:09 -29.34004 -71.37642 18109 ft 266 kts 189°
2026-04-22 19:09 -29.35853 -71.37832 17843 ft 267 kts 188°
2026-04-22 19:09 -29.37708 -71.38023 17578 ft 268 kts 188°
2026-04-22 19:09 -29.39563 -71.38215 17316 ft 268 kts 188°
2026-04-22 19:10 -29.41418 -71.38406 17063 ft 268 kts 188°